Terminal Aerodrome Forecast
Issued by NWS

Home | Current Version | Previous Version | Text Only | Print | Product List | Glossary On
Versions: 1 2 3 4 5 6 7 8 9 10 11 12 13 14 15
992
FTUS45 KRIW 231509 AAB
TAFBPI
TAF AMD
KBPI 231509Z 2315/2412 33006KT P6SM SCT025
      TEMPO 2315/2317 BKN025
     FM231800 12009KT P6SM VCSH SCT020 BKN035
     FM240400 02013KT P6SM VCSH SCT030 BKN045
     FM240900 03008KT P6SM -RASN SCT020 BKN030=

USA.gov is the U.S. government's official web portal to all federal, state and local government web resources and services.